Location: ???????
(47.9917°N, 37.7759°E)
Time: 15:45:11
(UTC+00:00)

Daily predictions for brighter satellites

Satellite Brightness Start Highest point End
(mag) Time Altitude Azimuth Time Altitude Azimuth Time Altitude Azimuth
SL-16 R/B 4.1 17:52:08 10° ESE 17:53:11 11° E 17:54:15 10° E
Cosmos 1503 Rocket 4.5 17:48:23 10° S 17:53:16 41° ESE 17:58:15 10° NE
Cosmos 968 Rocket 4.2 17:50:08 10° SW 17:55:14 60° WNW 18:00:19 10° NNE
Meteor 1-10 Rocket 4.4 17:50:08 10° SSW 17:55:41 83° WNW 18:01:22 10° N
ERS-1 Rocket 4.2 17:53:19 10° ESE 17:57:31 28° ENE 18:01:45 10° N
Cosmos 1184 Rocket 3.0 17:56:22 10° S 17:59:14 42° E 18:02:08 10° NNE
BREEZE M DEB (TANK) 3.8 17:55:22 10° WSW 17:59:27 80° SSE 18:15:09 10° ENE
Cosmos 1151 Rocket 4.4 17:57:09 10° SSW 18:01:12 41° WNW 18:05:17 10° N
Cosmos 1933 Rocket 3.7 17:59:13 10° N 18:03:41 69° ENE 18:08:08 10° SSE
Cosmos 405 3.8 18:00:50 10° NNW 18:04:09 48° W 18:07:27 10° S
Cosmos 389 Rocket 2.4 18:01:19 10° N 18:04:49 80° E 18:08:20 10° SSE
Meteor 1-27 Rocket 3.8 17:59:22 10° S 18:05:08 77° E 18:11:02 10° NNE
SPOT 1/Viking Rocket 3.6 18:00:27 10° SSE 18:05:38 89° ENE 18:10:50 10° NNW
Cosmos 2034 Rocket 4.3 18:01:42 10° SSE 18:07:43 50° E 18:13:49 10° NNE
Cosmos 1515 3.7 18:06:17 10° S 18:10:04 89° W 18:13:51 10° N
Cosmos 2219 3.9 18:05:04 10° NW 18:10:30 50° WSW 18:15:53 10° S
Helios 1A Rocket 3.6 18:06:47 10° SE 18:10:30 38° ENE 18:14:15 10° N
CZ-4B R/B 1.5 18:09:02 10° N 18:12:14 71° WNW 18:15:21 10° SSW
Cosmos 2278 4.3 18:07:52 10° S 18:12:57 35° ESE 18:18:04 10° NE
Cosmos 482 Debris 3.8 18:12:33 10° WNW 18:15:12 77° NNE 18:19:14 10° ESE
SJ 16-02 1.8 18:13:22 10° S 18:17:27 40° ESE 18:21:34 10° NE
Cosmos 2082 3.8 18:11:49 10° NNW 18:17:29 81° WSW 18:23:05 10° SSE
Meteor 1-11 Rocket 4.4 18:11:45 10° NNW 18:17:38 60° W 18:23:27 10° S
Cosmos 1340 2.8 18:16:54 10° SSW 18:20:37 79° WNW 18:24:23 10° N
Cosmos 2263 Rocket 2.4 18:15:17 10° NNW 18:20:49 59° ENE 18:25:47 13° SE
Ariane Rocket 3.3 18:20:56 10° S 18:25:57 66° WSW 18:31:03 10° NNW
Cosmos 2344 3.5 18:20:23 10° SSW 18:27:51 73° SE 18:35:30 10° NE
IRAS Rocket 4.5 18:23:32 10° NNE 18:29:11 79° WNW 18:34:49 10° SSW
Cosmos 1743 3.5 18:27:04 10° NNW 18:30:43 48° W 18:34:21 10° S
SPOT 5 3.3 18:27:18 13° SSE 18:32:00 59° ENE 18:37:02 10° N
Terra 2.5 18:30:11 14° SE 18:33:57 41° ENE 18:38:26 10° N
Cosmos 1809 Rocket 4.5 18:28:04 10° N 18:34:14 88° W 18:40:24 10° S
Aureole 1 Rocket 3.3 18:32:00 10° SW 18:35:02 45° WNW 18:37:56 10° N
Resurs 01 Rocket 3.0 18:33:23 10° SSW 18:37:26 36° W 18:41:32 10° NNW
Cosmos 2227 Rocket 3.9 18:33:36 10° NW 18:38:20 28° WSW 18:43:04 10° SSW
Cosmos 1346 Rocket 3.9 18:39:36 17° SE 18:41:47 27° E 18:45:12 10° NNE
Cosmos 921 Rocket 3.7 18:40:23 10° NNW 18:44:49 54° WSW 18:48:50 12° S
Cosmos 1980 Rocket 2.3 18:42:53 10° SSW 18:48:31 83° WNW 18:54:14 10° NNE
Geosat FO 4.4 18:47:39 20° SSE 18:49:52 90° W 18:53:12 10° NNW
SL-24 R/B - RUBIN 2 3.8 18:46:13 10° NW 18:50:35 65° NE 18:53:49 18° SE
CARTOSAT-1 4.2 18:49:09 10° S 18:53:17 51° W 18:57:30 10° NNW
Cosmos 1869 Rocket 3.7 18:49:12 10° NNW 18:53:42 77° W 18:57:23 15° S
ATLAS 2AS CENTAUR R/B 2.9 18:48:01 10° SSW 18:55:48 74° SE 19:03:20 10° NE
Cosmos 2228 Rocket 3.1 18:51:35 10° S 18:56:06 83° E 19:00:40 10° N
Cosmos 2322 Rocket 3.3 18:54:33 18° SE 18:57:11 26° ESE 19:01:43 10° NE
Cosmos 2369 4.2 18:52:30 10° SW 18:58:06 63° WNW 19:03:44 10° NNE
Cosmos 1777 Rocket 3.9 18:54:03 10° SSW 18:59:14 76° ESE 19:04:30 10° NNE
Spot 2 Rocket 3.5 18:55:31 16° S 18:59:38 80° WSW 19:04:42 10° NNW
Cosmos 1844 Rocket 4.0 18:55:18 10° NNW 19:00:15 31° NE 19:04:39 12° ESE
Cosmos 1354 Rocket 4.3 18:55:07 10° SSW 19:00:22 71° WNW 19:05:42 10° NNE
SPOT 3 Rocket 4.2 18:55:31 10° S 19:00:26 52° W 19:05:29 10° NNW
Cosmos 773 Rocket 4.4 18:56:01 10° NNW 19:01:10 59° WSW 19:05:12 16° S
Cosmos 1092 Rocket 4.0 18:56:15 10° N 19:02:28 88° E 19:07:25 17° S
Cosmos 1378 3.0 19:00:07 18° S 19:02:42 74° E 19:06:23 10° NNE
Meteor 2-4 Rocket 3.8 18:58:20 14° S 19:03:17 63° E 19:08:51 10° NNE
Meteor 1-19 Rocket 4.3 18:59:17 10° SSW 19:04:41 72° WNW 19:10:07 10° N
USA 267 4.3 19:00:07 10° E 19:06:13 44° N 19:12:20 10° WNW
ISS -3.7 19:03:50 10° WNW 19:07:08 59° SSW 19:08:33 30° SE
Cosmos 1697 Rocket 4.4 19:02:34 10° WSW 19:07:45 36° NW 19:12:58 10° NNE
Okean 1 4.2 19:05:31 10° SSW 19:09:23 48° WNW 19:13:19 10° N
Cosmos 1634 Rocket 4.0 19:05:22 14° S 19:10:41 72° E 19:16:51 10° NNE
RESURS DK-1 2.5 19:09:17 10° SW 19:13:23 73° WNW 19:17:32 10° NNE
SL-4 R/B 4.3 19:12:28 10° W 19:14:49 14° SW 19:16:42 11° SSW
Cosmos 1805 4.3 19:13:02 10° N 19:16:35 32° ENE 19:18:07 23° ESE
ARIANE 5 R/B 2.6 19:16:07 24° SSE 19:18:48 87° ENE 19:23:19 10° NNW
Cosmos 1707 Rocket 3.5 19:17:07 20° S 19:20:09 81° E 19:24:35 10° NNE
Cosmos 44 Rocket 3.3 19:15:32 10° NW 19:20:13 67° SW 19:22:46 26° SSE
ATLAS 3B R/B 2.9 19:13:17 10° NW 19:20:39 82° NE 19:26:10 21° SE
ATLAS CENTAUR R/B 3.3 19:17:29 10° NNW 19:21:46 29° NE 19:25:51 10° E
NOSS 2-1 (E) 3.0 19:21:03 33° S 19:22:04 47° SE 19:25:11 10° NE
Cosmos 2219 Rocket 4.2 19:21:26 10° ESE 19:22:08 11° E 19:23:13 10° E
Cosmos 2227 4.3 19:16:38 10° NNW 19:22:24 76° WSW 19:26:02 24° SSE
Cosmos 158 Rocket 4.3 19:21:17 10° NNW 19:26:21 61° WSW 19:29:36 23° S
Cosmos 2026 Rocket 4.1 19:21:39 10° NNW 19:27:48 72° W 19:32:27 19° S
Cosmos 1733 3.7 19:26:47 10° N 19:30:26 44° ENE 19:31:41 31° SE
USA 81 4.1 19:28:23 19° S 19:32:14 85° W 19:37:33 10° N
CZ-4C R/B 4.1 19:28:15 10° NW 19:34:28 37° NNE 19:41:47 10° E
CSL-04 DEB 4.3 19:30:30 10° NNE 19:34:29 72° ESE 19:36:26 29° S
Cosmos 1975 3.7 19:31:37 10° NNW 19:35:31 45° W 19:37:52 21° SSW
ERS-1 Rocket 3.8 19:32:33 17° SSW 19:36:07 45° W 19:40:57 10° NNW
SL-16 R/B 2.2 19:31:42 16° SSW 19:36:11 68° ESE 19:41:50 10° NNE
Cosmos 2237 4.5 19:34:31 25° S 19:37:37 49° ESE 19:43:06 10° NE
Cosmos 1538 Rocket 4.2 19:35:59 10° NNW 19:41:11 64° WSW 19:43:58 27° S
Meteor 2-10 4.3 19:39:11 10° N 19:44:23 55° ENE 19:46:48 29° SE
Meteor 1-4 Rocket 2.4 19:41:14 10° N 19:44:43 70° ENE 19:45:36 46° SE
Cosmos 1733 Rocket 3.4 19:44:03 10° NNW 19:48:27 60° W 19:50:39 28° SSW
GENESIS II 4.3 19:46:07 10° SW 19:49:56 73° NW 19:53:53 10° NE
Geosat 4.0 19:48:25 31° SSE 19:50:54 80° WSW 19:55:58 10° NNW
GRACE-FO 1 4.5 19:49:15 10° N 19:52:53 89° WNW 19:53:56 45° S
GRACE-FO 2 4.5 19:49:40 10° N 19:53:19 88° W 19:54:22 45° S
COSMOS 2428 4.5 19:53:57 14° ESE 19:54:44 15° E 19:57:42 10° ENE
SJ 16-02 3.5 19:52:34 10° WSW 19:56:10 24° WNW 19:59:47 10° N
SAR-Lupe-4 3.8 19:54:01 10° N 19:57:36 67° WNW 19:59:04 33° SSW
ERS-2 4.2 19:56:10 10° NE 19:58:05 15° E 19:58:05 15° E
Cosmos 923 Rocket 4.0 19:54:00 10° NNW 19:59:23 85° ENE 20:01:50 33° SSE
OE (NEXTSAT) 4.2 19:56:19 10° W 19:59:28 61° SSW 19:59:28 61° SSW
Cosmos 1908 Rocket 3.6 19:55:42 10° N 20:00:02 67° ENE 20:01:28 40° SSE
Cosmos 2360 Rocket 2.4 19:59:00 31° SSE 20:01:22 51° ESE 20:06:50 10° NE
NOSS 2-1 (C) 3.5 19:59:40 13° WSW 20:02:28 54° NW 20:05:42 10° NNE
Cosmos 1356 3.2 20:02:07 60° S 20:02:39 89° E 20:05:59 10° NNE
Cosmos 1862 Rocket 4.0 20:00:24 24° SSW 20:02:58 60° WNW 20:07:26 10° N
Cosmos 2266 Rocket 4.0 19:57:23 10° N 20:03:39 70° ENE 20:06:45 31° SSE
Cosmos 1937 Rocket 4.1 20:02:32 32° SE 20:04:03 40° ESE 20:08:58 10° NE
Cosmos 2263 Rocket 3.8 19:59:55 10° NW 20:04:19 24° WSW 20:07:29 15° SW
Meteor 1-13 Rocket 4.1 20:02:04 30° S 20:04:56 77° E 20:10:29 10° NNE
Cosmos 1470 4.2 20:04:16 10° NNE 20:07:32 25° ENE 20:08:30 23° E
Cosmos 2242 Rocket 4.2 20:06:29 35° SE 20:07:40 42° E 20:11:59 10° NNE
ALOS 2 3.7 20:07:13 25° ESE 20:08:54 34° ENE 20:12:53 10° N
Cosmos 1726 2.3 20:06:36 10° N 20:10:14 57° ENE 20:10:52 48° ESE
Terra 3.4 20:09:04 16° SW 20:11:51 26° W 20:15:51 10° NW
USA 215 3.5 20:06:16 10° ENE 20:12:34 48° SE 20:16:25 23° SSW
NOSS 2-1 (D) 4.0 20:09:53 10° WSW 20:12:58 42° NW 20:16:08 10° NNE
Cosmos 2279 Rocket 4.3 20:08:57 19° SSW 20:13:24 64° WNW 20:19:36 10° N
BREEZE-M DEB (TANK) 1.9 20:13:34 10° WNW 20:15:44 80° NNE 20:15:45 80° NNE
Cosmos 1441 Rocket 3.9 20:16:07 28° SW 20:17:38 46° WNW 20:21:15 10° N
Cosmos 2278 Rocket 4.2 20:15:18 10° N 20:19:44 23° NE 20:24:08 10° E
Cosmos 2112 Rocket 4.0 20:14:36 10° NNW 20:19:58 83° ENE 20:22:07 37° SSE
Cosmos 1680 Rocket 3.5 20:15:43 10° NNW 20:21:03 85° WSW 20:23:08 38° SSE
Cosmos 990 Rocket 4.1 20:17:55 24° SSW 20:21:06 77° WNW 20:26:23 10° NNE
ADEOS Rocket 3.8 20:18:35 22° ESE 20:21:44 39° ENE 20:27:19 10° N
Meteor 1-12 Rocket 4.3 20:17:23 10° NNW 20:23:21 77° W 20:26:02 34° S
Cosmos 1626 4.4 20:28:53 13° E 20:29:00 13° E 20:30:38 10° ENE
Cosmos 1842 3.5 20:28:37 48° ESE 20:29:03 51° E 20:32:50 10° NNE
Cosmos 1818 3.5 20:23:48 10° NW 20:29:18 86° SW 20:31:31 37° SSE
Spot 4 3.8 20:28:07 42° SSE 20:29:46 85° ENE 20:34:36 10° NNW
Iridium 4 Rocket 3.3 20:27:41 10° N 20:32:16 81° W 20:33:58 41° S
Cosmos 1898 Rocket 3.5 20:31:36 32° SSW 20:34:12 86° WNW 20:39:34 10° NNE
Cosmos 1900 4.3 20:36:21 36° SSW 20:38:24 78° ESE 20:43:34 10° NE
Cosmos 2322 Rocket 2.7 20:36:17 15° SW 20:40:50 57° WNW 20:46:24 10° NNE
Cosmos 1674 4.4 20:41:26 21° E 20:41:33 21° E 20:44:25 10° NE
Okean 1-7 3.3 20:40:37 38° SW 20:42:06 62° WNW 20:46:27 10° N
Cosmos 1844 Rocket 3.0 20:39:00 10° NW 20:44:25 52° WSW 20:46:18 36° SSW
Cosmos 2322 4.1 20:43:35 37° SSE 20:45:12 47° ESE 20:50:41 10° NE
Cosmos 2333 Rocket 2.2 20:43:20 39° S 20:45:21 64° ESE 20:50:58 10° NNE
Cosmos 1758 4.4 20:42:53 10° N 20:46:31 33° ENE 20:47:24 30° E
ATLAS 2AS CENTAUR R/B 4.2 20:40:10 10° W 20:47:23 40° NNW 20:54:19 10° NE
SL-08 ROCKET BODY 4.5 20:42:43 10° N 20:48:36 65° ENE 20:51:01 35° SSE
USA 267 3.4 20:42:27 11° ESE 20:48:47 76° NNE 20:55:21 10° NW
Okean 3 3.6 20:48:34 45° SW 20:49:42 67° W 20:53:57 10° N
Meteor 1-23 Rocket 4.4 20:51:46 33° SSW 20:54:30 75° WNW 21:00:22 10° N
H-2A R/B 3.3 20:51:00 10° NNE 20:55:06 88° WNW 20:55:56 56° SSW
Cosmos 1461 3.2 20:52:10 10° NNW 20:56:17 62° NE 20:57:40 39° ESE
ASTEX 1 4.4 20:53:11 10° NNE 20:57:41 35° E 20:59:03 29° ESE
ATLAS CENTAUR R/B 1.8 20:56:08 10° NW 21:00:56 61° WSW 21:01:50 50° S
Cosmos 1553 Rocket 4.5 20:58:58 32° SE 21:01:21 47° E 21:07:15 10° NNE
Nadezhda 2 Rocket 4.5 20:57:20 10° N 21:03:32 75° E 21:06:07 37° SSE
Cosmos 2219 Rocket 2.1 21:03:06 41° S 21:05:00 69° ESE 21:10:34 10° NNE
Cosmos 1844 4.4 21:02:24 10° NW 21:07:50 42° WSW 21:09:35 33° SSW
ATLAS 3B R/B 4.1 21:04:47 10° WNW 21:10:47 27° WSW 21:13:24 22° SW
Cosmos 372 Rocket 4.0 21:11:22 38° SW 21:13:21 77° WNW 21:18:34 10° NNE
Cosmos 2221 Rocket 3.9 21:13:38 44° SE 21:14:26 50° E 21:18:43 10° NNE
Cosmos 494 Rocket 4.5 21:09:29 10° NNW 21:14:31 53° ENE 21:16:51 30° SE
Cosmos 1048 Rocket 4.3 21:09:35 10° NNW 21:14:43 58° ENE 21:16:55 32° SE
NOSS 3-1 (A) 4.1 21:07:28 10° NW 21:14:49 81° NE 21:21:35 18° SE
SL-16 R/B 4.1 21:16:06 10° WSW 21:20:48 26° NW 21:25:31 10° N
NOSS 3-1 (C) 4.1 21:14:45 10° NW 21:22:08 67° SW 21:26:41 30° SSE
CZ-4C R/B 2.9 21:16:34 10° NW 21:23:47 84° SW 21:29:11 25° SSE
Cosmos 1125 Rocket 4.4 21:23:02 31° SE 21:24:12 35° ESE 21:28:53 10° NE
Cosmos 1378 Rocket 4.2 21:23:48 38° ESE 21:24:39 42° E 21:28:51 10° NNE
Cosmos 1707 2.7 21:25:34 61° SW 21:26:02 69° W 21:29:55 10° N
USA 308 4.4 21:29:18 22° ESE 21:29:18 22° ESE 21:31:31 10° ENE
Gblst 52 Del rocket 4.4 21:22:31 10° WSW 21:28:51 78° NNW 21:34:32 10° ENE
Okean 2 3.2 21:30:37 65° S 21:31:12 86° E 21:35:19 10° N
ERS-2 2.8 21:28:27 10° N 21:31:55 44° WNW 21:32:29 40° W
Cosmos 1300 4.4 21:29:54 10° NNE 21:33:04 24° ENE 21:34:16 21° E
NOSS 2-2 (D) 4.4 21:28:15 10° NW 21:33:08 72° NE 21:38:21 17° SE
Cosmos 1238 Rocket 2.5 21:30:46 10° N 21:33:24 61° NNE 21:33:24 61° NNE
Cosmos 2237 Rocket 3.2 21:33:08 29° SE 21:34:39 33° ESE 21:39:42 10° NE
Cosmos 1745 Rocket 4.1 21:31:14 10° N 21:37:27 67° ENE 21:40:22 32° SSE
USA 290 2.4 21:38:03 68° NE 21:38:03 68° NE 21:40:56 10° NNE
COSMOS 2428 2.6 21:35:55 40° SSW 21:38:07 87° ESE 21:43:50 10° NNE
Resurs 1-4 Rocket 4.3 21:39:31 10° ENE 21:42:07 14° E 21:44:42 10° ESE
KORONAS-FOTON 3.7 21:41:50 66° SW 21:42:12 73° W 21:46:02 10° N
Cosmos 1300 Rocket 4.4 21:39:06 10° NNW 21:43:05 36° W 21:43:49 33° WSW
SL-14 R/B 4.1 21:42:36 35° ESE 21:43:05 36° E 21:46:40 10° NNE
Cosmos 1470 4.1 21:40:12 10° NNW 21:43:28 26° W 21:43:46 26° W
PSLV R/B 3.5 21:40:28 10° NNE 21:44:53 84° ESE 21:45:55 53° S
ALOS 2 3.8 21:44:37 27° WSW 21:45:16 28° W 21:49:04 10° NW
Cosmos 2360 Rocket 3.7 21:40:42 10° WSW 21:45:36 32° NW 21:50:40 10° NNE
Cosmos 2151 Rocket 3.5 21:41:19 10° NNW 21:45:43 73° W 21:46:35 55° SSW
Cosmos 1943 Rocket 4.0 21:43:57 10° NNW 21:48:52 29° NE 21:53:45 10° ESE
ERBS 4.5 21:51:10 15° E 21:51:10 15° E 21:51:58 10° ENE
Nimbus 7 Rocket 4.3 21:43:53 10° NNE 21:49:48 89° WNW 21:52:13 38° SSW
Okean 2 Rocket 3.3 21:45:21 10° NNW 21:49:49 59° W 21:50:44 48° SW
In-Cosmos 22 4.3 21:47:57 37° SW 21:50:08 65° WNW 21:55:35 10° N
USA 305 3.3 21:51:03 43° SE 21:51:03 43° SE 21:54:42 10° ENE
Cosmos 1242 Rocket 3.3 21:49:01 10° NNW 21:52:19 39° W 21:52:19 39° W
Cosmos 405 Rocket 2.5 21:53:19 71° SSE 21:53:37 79° E 21:57:25 10° NNE
Cosmos 1867 3.6 21:53:07 34° SW 21:55:34 80° NW 22:01:06 10° NE
Cosmos 2298 Rocket 4.1 21:54:04 42° S 21:55:42 65° ESE 22:00:59 10° NNE
USA 215 3.5 21:49:16 10° NE 21:55:47 69° NNW 22:02:17 10° WSW
Cosmos 1437 Rocket 2.5 21:54:04 10° N 21:57:51 85° ENE 21:58:15 69° SSE
Cosmos 1908 3.3 21:55:53 10° NNW 21:59:35 54° W 21:59:48 53° WSW
GP-B 4.1 21:58:52 10° NNE 22:03:03 39° E 22:04:38 29° SE
ATLAS 5 CENTAUR R/B 3.1 21:50:28 10° NW 22:03:31 69° SW 22:05:22 37° SSE
Cosmos 1626 2.5 22:03:15 48° W 22:03:36 50° WNW 22:07:12 10° N
Cosmos 2278 Rocket 2.1 21:58:49 10° NNW 22:04:31 82° WSW 22:07:03 35° SSE
Cosmos 839 Rocket 4.1 21:59:10 10° NW 22:05:31 87° SW 22:10:59 20° SSE
ADEOS Rocket 3.7 22:05:31 29° SW 22:07:20 36° W 22:12:50 10° NNW
Cosmos 1953 2.2 22:04:29 10° N 22:08:31 82° W 22:09:10 61° S
Cosmos 1674 3.8 22:16:06 28° W 22:16:45 30° WNW 22:20:08 10° N
SL-16 R/B 3.8 22:16:42 10° SE 22:22:21 39° ENE 22:28:03 10° N
SL-16 R/B 3.6 22:20:27 20° SE 22:22:54 27° ESE 22:27:37 10° NE
USA 32 4.0 22:21:56 37° S 22:24:02 81° E 22:29:19 10° N
Okean 1 Rocket 3.3 22:21:52 10° NNW 22:26:11 54° W 22:27:13 43° SW
Cosmos 1980 3.6 22:24:18 37° SSW 22:26:41 84° ESE 22:32:22 10° NNE
Lacrosse 5 2.8 22:27:49 29° SSE 22:28:50 32° SE 22:33:20 10° ENE
Cosmos 371 Rocket 3.3 22:28:14 39° SW 22:30:01 73° WNW 22:34:54 10° NNE
Cosmos 2333 Rocket 3.9 22:25:19 10° WSW 22:30:05 27° NW 22:34:54 10° NNE
Cosmos 1709 Rocket 3.9 22:25:42 10° N 22:31:51 80° W 22:34:54 31° S
USA 267 3.6 22:29:45 31° S 22:32:07 41° SW 22:38:14 10° WNW
USA 306 2.7 22:31:31 47° SW 22:32:39 81° SSE 22:36:50 10° ENE
Meteor 2-10 Rocket 3.6 22:27:17 10° NNW 22:33:00 89° E 22:35:45 31° S
Cosmos 1269 Rocket 4.3 22:30:37 10° NNW 22:35:53 65° ENE 22:39:53 17° SE
USA 307 2.7 22:35:31 47° SW 22:36:37 76° SSE 22:40:49 10° ENE
Cosmos 2315 Rocket 4.0 22:33:42 31° S 22:36:57 88° E 22:43:23 10° N
Cosmos 304 Rocket 3.7 22:37:17 40° SSW 22:39:03 88° ESE 22:43:54 10° NNE
USA 229 DEB 4.2 22:32:01 10° NW 22:39:05 50° WSW 22:43:19 26° S
USA 229 4.2 22:32:07 10° NW 22:39:11 50° WSW 22:43:26 26° S
S3M 4.4 22:39:29 28° SW 22:42:42 52° WNW 22:48:54 10° N
Cosmos 2084 Rocket 3.6 22:43:12 42° SSE 22:43:47 46° SE 22:47:26 10° NE
COSMOS 2455 4.3 22:42:28 17° SSE 22:45:39 25° ESE 22:50:29 10° NE
Meteor 1-24 Rocket 4.2 22:43:16 25° SSE 22:46:21 53° E 22:51:38 10° NNE
Cosmos 2219 Rocket 3.9 22:44:55 10° W 22:49:28 25° NW 22:54:05 10° N
CZ-2D R/B 2.6 22:51:14 10° NNE 22:56:31 54° E 22:59:34 24° SSE
Cosmos 1455 3.2 22:53:17 10° N 22:56:49 41° ENE 22:59:05 19° SE
MOZ.5/SAFIR/RUBIN 5/SL-8 3.9 22:56:16 34° SSW 22:58:11 62° WSW 23:02:55 10° NNW
Cosmos 1455 Rocket 3.1 22:59:11 10° NNW 23:03:36 63° W 23:05:22 34° SSW
Cosmos 1271 Rocket 4.4 23:00:47 10° N 23:04:11 30° ENE 23:07:37 10° SE
Cosmos 1125 Rocket 4.5 23:03:17 20° WSW 23:06:14 37° WNW 23:11:04 10° N
SME Rocket 3.3 23:05:13 34° S 23:06:53 61° WSW 23:12:03 10° NNW
USA 308 2.9 23:05:02 26° WSW 23:07:19 74° NNW 23:11:32 10° ENE
Cosmos 1300 3.8 23:05:21 10° NNW 23:08:35 27° W 23:09:06 26° WSW
Meteor 2-5 Rocket 3.7 23:07:46 27° SSW 23:11:02 86° W 23:16:44 10° N
CZ-4C R/B 4.1 23:06:03 10° WNW 23:11:51 24° WSW 23:14:17 21° SW
Cosmos 2237 Rocket 2.9 23:14:56 20° WSW 23:18:34 46° NW 23:24:04 10° NNE
Cosmos 1975 Rocket 3.5 23:19:32 29° SW 23:21:28 48° WNW 23:25:49 10° N
SAR-Lupe-2 4.2 23:18:39 10° NNE 23:22:09 47° E 23:23:59 24° SSE
Resurs 1-4 Rocket 2.1 23:17:22 10° NNE 23:22:40 90° ESE 23:25:56 24° SSW
ERBS 3.0 23:23:11 24° W 23:24:38 43° NNW 23:27:36 10° NE
Cosmos 1025 Rocket 3.3 23:23:16 29° SW 23:25:12 53° WNW 23:29:26 10° N
USA 305 3.5 23:26:44 13° W 23:30:15 52° NNW 23:34:22 10° ENE
CZ-4 R/B 3.7 23:26:40 10° NNE 23:31:19 76° WNW 23:34:02 25° SSW
Cosmos 1943 Rocket 2.3 23:27:25 10° NW 23:33:00 59° WSW 23:37:57 13° S
YAOGAN 11 4.1 23:32:10 17° SSE 23:35:35 82° WSW 23:40:08 10° NNW
IDEFIX/ARIANE 42P 3.1 23:30:46 10° NNE 23:35:57 55° E 23:40:16 15° S
ADEOS II 2.3 23:31:27 10° NNE 23:36:42 66° ESE 23:40:44 17° S
USA 215 4.4 23:32:13 10° ENE 23:38:16 42° N 23:44:21 10° WNW
Cosmos 2297 3.7 23:32:41 10° NNW 23:38:24 69° WSW 23:44:05 10° SSE
Cosmos 614 Rocket 3.9 23:34:31 10° NNW 23:39:45 83° WSW 23:44:58 10° SSE
Thor Agena Rocket 4.5 23:35:29 10° N 23:40:20 38° WNW 23:43:43 18° WSW
UNK 3.7 23:37:16 18° S 23:40:39 69° WSW 23:45:17 10° NNW
Lacrosse 5 rocket 1.3 23:39:06 28° SSW 23:41:02 64° SE 23:45:04 10° ENE
Cosmos 2154 Rocket 4.0 23:40:17 10° N 23:46:39 81° W 23:52:57 10° S
Cosmos 2278 Rocket 4.0 23:45:02 10° WNW 23:47:40 13° W 23:48:51 13° WSW
Cosmos 1544 Rocket 4.2 23:45:54 10° NNW 23:50:02 39° W 23:52:26 21° SSW
Cosmos 2251 Rocket 3.7 23:44:48 10° NNW 23:50:06 76° ENE 23:55:22 10° SSE
Cosmos 1703 3.5 23:49:26 17° S 23:52:24 67° E 23:56:19 10° NNE
Helios 1A 2.9 23:48:44 11° SSE 23:52:48 86° WSW 23:57:04 10° NNW
